| time (UTC) | temp F | wind direction | speed knots | gust knots | rain 1hr in | rain 24hr in | rain mn in | humidity % | barometer mb |
| 20260905223026 | 57 | 278 | 6.1 | 13.9 | 0.00 | 0.05 | 0.00 | 79 | 1017.0 |
| 20260905222524 | 57 | 283 | 6.1 | 13.9 | 0.00 | 0.05 | 0.00 | 78 | 1017.2 |
| 20260905222022 | 57 | 290 | 5.2 | 13.0 | 0.00 | 0.05 | 0.00 | 78 | 1017.2 |
| 20260905221520 | 57 | 289 | 5.2 | 12.2 | 0.00 | 0.05 | 0.00 | 77 | 1017.1 |
| 20260905221019 | 57 | 282 | 4.3 | 13.0 | 0.00 | 0.05 | 0.00 | 77 | 1017.1 |
| 20260905220517 | 57 | 286 | 4.3 | 8.7 | 0.00 | 0.05 | 0.00 | 77 | 1017.0 |
| 20260905220035 | 57 | 285 | 4.3 | 11.3 | 0.00 | 0.05 | 0.05 | 77 | 1017.0 |
| 20260905215533 | 57 | 288 | 5.2 | 13.0 | 0.00 | 0.05 | 0.05 | 76 | 1017.0 |
| 20260905215032 | 57 | 274 | 6.1 | 15.6 | 0.00 | 0.05 | 0.05 | 76 | 1016.9 |
| 20260905214529 | 57 | 284 | 5.2 | 13.9 | 0.00 | 0.05 | 0.05 | 76 | 1016.9 |
| 20260905214027 | 57 | 286 | 5.2 | 11.3 | 0.00 | 0.05 | 0.05 | 76 | 1017.0 |
| 20260905213526 | 58 | 295 | 6.1 | 9.6 | 0.00 | 0.05 | 0.05 | 76 | 1016.8 |
| 20260905213024 | 58 | 287 | 5.2 | 12.2 | 0.00 | 0.05 | 0.05 | 76 | 1016.7 |
| 20260905212522 | 58 | 285 | 4.3 | 11.3 | 0.00 | 0.05 | 0.05 | 76 | 1016.6 |
| 20260905212020 | 58 | 278 | 5.2 | 12.2 | 0.00 | 0.05 | 0.05 | 76 | 1016.7 |
| 20260905211518 | 58 | 278 | 6.1 | 13.0 | 0.00 | 0.05 | 0.05 | 76 | 1016.7 |
| 20260905211016 | 58 | 282 | 7.0 | 13.0 | 0.00 | 0.07 | 0.05 | 76 | 1016.6 |
| 20260905210534 | 58 | 284 | 6.1 | 11.3 | 0.00 | 0.08 | 0.05 | 75 | 1016.6 |
| 20260905210032 | 58 | 282 | 7.0 | 13.0 | 0.00 | 0.08 | 0.05 | 75 | 1016.5 |
| 20260905205531 | 58 | 280 | 7.0 | 13.0 | 0.00 | 0.08 | 0.05 | 74 | 1016.6 |
| 20260905205029 | 58 | 284 | 7.0 | 13.9 | 0.00 | 0.08 | 0.05 | 74 | 1016.6 |
| 20260905204527 | 58 | 279 | 7.0 | 14.8 | 0.00 | 0.08 | 0.05 | 74 | 1016.6 |
| 20260905204025 | 58 | 282 | 8.7 | 22.6 | 0.00 | 0.08 | 0.05 | 74 | 1016.6 |
| 20260905203523 | 58 | 279 | 7.8 | 19.1 | 0.00 | 0.09 | 0.05 | 75 | 1016.6 |
| 20260905203021 | 59 | 291 | 6.1 | 11.3 | 0.00 | 0.09 | 0.05 | 74 | 1016.5 |
| 20260905202520 | 59 | 289 | 7.0 | 16.5 | 0.00 | 0.09 | 0.05 | 74 | 1016.5 |
| 20260905202018 | 59 | 277 | 6.1 | 12.2 | 0.00 | 0.09 | 0.05 | 74 | 1016.4 |
| 20260905201516 | 59 | 279 | 5.2 | 13.0 | 0.00 | 0.09 | 0.05 | 74 | 1016.4 |
| 20260905201034 | 59 | 288 | 7.0 | 13.9 | 0.00 | 0.09 | 0.05 | 74 | 1016.3 |
| 20260905200532 | 59 | 266 | 7.0 | 16.5 | 0.00 | 0.09 | 0.05 | 75 | 1016.4 |
| 20260905200030 | 59 | 291 | 3.5 | 7.8 | 0.00 | 0.09 | 0.05 | 76 | 1016.4 |
| 20260905195528 | 59 | 284 | 3.5 | 9.6 | 0.00 | 0.09 | 0.05 | 76 | 1016.2 |
| 20260905195026 | 59 | 283 | 2.6 | 7.0 | 0.00 | 0.09 | 0.05 | 76 | 1016.4 |
| 20260905194524 | 59 | 278 | 2.6 | 7.0 | 0.00 | 0.09 | 0.05 | 76 | 1016.3 |
| 20260905194022 | 59 | 284 | 3.5 | 9.6 | 0.00 | 0.09 | 0.05 | 76 | 1016.3 |
| 20260905193520 | 59 | 275 | 3.5 | 8.7 | 0.00 | 0.09 | 0.05 | 76 | 1016.3 |
| 20260905193019 | 59 | 283 | 2.6 | 5.2 | 0.01 | 0.09 | 0.05 | 75 | 1016.2 |
| 20260905192516 | 59 | 283 | 2.6 | 8.7 | 0.01 | 0.09 | 0.05 | 75 | 1016.2 |
| 20260905192035 | 60 | 285 | 4.3 | 9.6 | 0.01 | 0.09 | 0.05 | 75 | 1016.5 |
| 20260905191532 | 60 | 268 | 2.6 | 5.2 | 0.01 | 0.09 | 0.05 | 74 | 1016.4 |
| 20260905191043 | 60 | 286 | 2.6 | 6.1 | 0.01 | 0.09 | 0.05 | 73 | 1016.6 |
| 20260905191030 | 60 | 272 | 1.7 | 6.1 | 0.01 | 0.09 | 0.05 | 73 | 1016.4 |
| 20260905190528 | 60 | 286 | 2.6 | 6.1 | 0.01 | 0.09 | 0.05 | 73 | 1016.6 |
| 20260905190026 | 60 | 270 | 2.6 | 3.5 | 0.01 | 0.09 | 0.05 | 73 | 1016.6 |
| 20260905185524 | 60 | 299 | 2.6 | 6.1 | 0.01 | 0.09 | 0.05 | 74 | 1016.7 |
| 20260905185023 | 60 | 289 | 2.6 | 6.1 | 0.01 | 0.09 | 0.05 | 73 | 1016.4 |
| 20260905184521 | 60 | 278 | 0.9 | 3.5 | 0.01 | 0.09 | 0.05 | 72 | 1016.4 |
| 20260905184018 | 60 | 277 | 2.6 | 7.0 | 0.01 | 0.09 | 0.05 | 73 | 1016.5 |
| 20260905183517 | 60 | 281 | 3.5 | 11.3 | 0.01 | 0.09 | 0.05 | 73 | 1016.6 |
| 20260905183035 | 60 | 286 | 3.5 | 7.8 | 0.00 | 0.08 | 0.04 | 72 | 1016.7 |
| 20260905182533 | 61 | 288 | 5.2 | 12.2 | 0.00 | 0.08 | 0.04 | 72 | 1016.9 |
| 20260905182031 | 61 | 286 | 5.2 | 13.0 | 0.00 | 0.08 | 0.04 | 69 | 1017.0 |
| 20260905181529 | 61 | 312 | 5.2 | 11.3 | 0.00 | 0.08 | 0.04 | 67 | 1016.9 |
| 20260905181028 | 62 | 303 | 4.3 | 8.7 | 0.00 | 0.08 | 0.04 | 66 | 1016.8 |
| 20260905180526 | 62 | 300 | 1.7 | 3.5 | 0.00 | 0.08 | 0.04 | 64 | 1016.6 |
| 20260905180024 | 62 | 324 | 0.9 | 3.5 | 0.00 | 0.08 | 0.04 | 63 | 1016.2 |
| 20260905175522 | 63 | 0.0 | 0.0 | 0.00 | 0.08 | 0.04 | 63 | 1016.1 | |
| 20260905175020 | 63 | 0.0 | 0.0 | 0.00 | 0.08 | 0.04 | 63 | 1016.1 | |
| 20260905174519 | 63 | 270 | 0.0 | 2.6 | 0.00 | 0.08 | 0.04 | 63 | 1016.1 |
| 20260905174016 | 63 | 0.0 | 0.0 | 0.00 | 0.08 | 0.04 | 62 | 1016.0 | |
| 20260905173534 | 63 | 0.0 | 0.0 | 0.00 | 0.08 | 0.04 | 62 | 1015.9 | |
| 20260905173033 | 63 | 284 | 0.9 | 2.6 | 0.00 | 0.08 | 0.04 | 62 | 1015.9 |
| 20260905172531 | 63 | 0.0 | 0.0 | 0.00 | 0.08 | 0.04 | 62 | 1015.8 | |
| 20260905172029 | 63 | 285 | 0.9 | 2.6 | 0.00 | 0.08 | 0.04 | 62 | 1015.7 |
| 20260905171527 | 63 | 290 | 0.9 | 2.6 | 0.00 | 0.08 | 0.04 | 62 | 1015.8 |
| 20260905171025 | 63 | 286 | 2.6 | 6.1 | 0.00 | 0.08 | 0.04 | 61 | 1015.9 |
| 20260905170523 | 63 | 289 | 0.9 | 3.5 | 0.00 | 0.08 | 0.04 | 61 | 1015.7 |
| 20260905170022 | 63 | 293 | 2.6 | 7.0 | 0.00 | 0.08 | 0.04 | 61 | 1015.8 |
| 20260905165519 | 64 | 286 | 2.6 | 7.0 | 0.00 | 0.08 | 0.04 | 61 | 1015.8 |
| 20260905165018 | 64 | 288 | 2.6 | 7.0 | 0.00 | 0.08 | 0.04 | 61 | 1015.7 |
| 20260905164515 | 64 | 299 | 2.6 | 7.0 | 0.00 | 0.08 | 0.04 | 61 | 1015.9 |
| 20260905164034 | 64 | 348 | 4.3 | 9.6 | 0.00 | 0.08 | 0.04 | 60 | 1015.8 |
| 20260905163532 | 64 | 315 | 3.5 | 8.7 | 0.00 | 0.08 | 0.04 | 59 | 1015.7 |
| 20260905163029 | 65 | 334 | 4.3 | 11.3 | 0.00 | 0.08 | 0.04 | 59 | 1015.8 |
| 20260905162527 | 65 | 312 | 4.3 | 9.6 | 0.00 | 0.08 | 0.04 | 58 | 1015.7 |
| 20260905162025 | 65 | 334 | 6.1 | 14.8 | 0.00 | 0.08 | 0.04 | 57 | 1015.7 |
| 20260905161523 | 66 | 324 | 6.1 | 16.5 | 0.00 | 0.08 | 0.04 | 56 | 1015.7 |
| 20260905161022 | 67 | 335 | 8.7 | 21.7 | 0.00 | 0.08 | 0.04 | 54 | 1015.8 |
| 20260905160520 | 68 | 291 | 5.2 | 11.3 | 0.00 | 0.08 | 0.04 | 53 | 1015.3 |
| 20260905160018 | 68 | 285 | 7.0 | 13.9 | 0.00 | 0.08 | 0.04 | 53 | 1015.2 |
| 20260905155516 | 68 | 286 | 6.1 | 12.2 | 0.00 | 0.08 | 0.04 | 52 | 1015.1 |
| 20260905155034 | 68 | 283 | 6.1 | 11.3 | 0.00 | 0.08 | 0.04 | 52 | 1015.1 |
| 20260905154532 | 67 | 281 | 7.0 | 15.6 | 0.00 | 0.08 | 0.04 | 52 | 1015.0 |
| 20260905154030 | 67 | 277 | 6.1 | 13.9 | 0.00 | 0.08 | 0.04 | 52 | 1015.0 |
| 20260905153528 | 67 | 282 | 5.2 | 9.6 | 0.00 | 0.08 | 0.04 | 52 | 1015.0 |
| 20260905153026 | 68 | 292 | 5.2 | 8.7 | 0.00 | 0.08 | 0.04 | 51 | 1014.9 |
| 20260905152524 | 68 | 285 | 6.1 | 11.3 | 0.00 | 0.08 | 0.04 | 50 | 1014.9 |
| 20260905152022 | 68 | 291 | 6.1 | 14.8 | 0.00 | 0.08 | 0.04 | 50 | 1014.9 |
| 20260905151521 | 68 | 284 | 4.3 | 9.6 | 0.00 | 0.08 | 0.04 | 50 | 1014.8 |
| 20260905151019 | 68 | 290 | 5.2 | 13.0 | 0.00 | 0.08 | 0.04 | 50 | 1014.8 |
| 20260905150517 | 68 | 282 | 6.1 | 11.3 | 0.00 | 0.08 | 0.04 | 49 | 1015.0 |
| 20260905150035 | 68 | 287 | 6.1 | 11.3 | 0.00 | 0.08 | 0.04 | 48 | 1014.8 |
| 20260905145533 | 69 | 278 | 8.7 | 15.6 | 0.00 | 0.08 | 0.04 | 48 | 1014.8 |
| 20260905145031 | 69 | 287 | 7.0 | 14.8 | 0.00 | 0.08 | 0.04 | 48 | 1014.8 |
| 20260905144529 | 69 | 289 | 7.0 | 14.8 | 0.00 | 0.08 | 0.04 | 48 | 1014.9 |
| 20260905144027 | 69 | 296 | 7.0 | 12.2 | 0.00 | 0.08 | 0.04 | 48 | 1014.8 |
| 20260905143525 | 68 | 290 | 8.7 | 18.2 | 0.00 | 0.08 | 0.04 | 47 | 1014.9 |
| 20260905143024 | 68 | 283 | 7.0 | 13.0 | 0.00 | 0.08 | 0.04 | 48 | 1015.0 |
| 20260905142522 | 68 | 291 | 7.8 | 19.1 | 0.00 | 0.08 | 0.04 | 47 | 1014.9 |
| 20260905142020 | 68 | 283 | 7.0 | 12.2 | 0.00 | 0.08 | 0.04 | 47 | 1015.0 |
| 20260905141518 | 69 | 281 | 7.8 | 20.9 | 0.00 | 0.08 | 0.04 | 47 | 1014.8 |
| 20260905141049 | 69 | 285 | 7.8 | 16.5 | 0.00 | 0.08 | 0.04 | 47 | 1014.8 |
| 20260905141016 | 69 | 285 | 7.8 | 16.5 | 0.00 | 0.08 | 0.04 | 47 | 1014.8 |
| 20260905140534 | 68 | 295 | 7.0 | 14.8 | 0.00 | 0.08 | 0.04 | 48 | 1014.8 |
| 20260905140032 | 68 | 292 | 7.0 | 18.2 | 0.00 | 0.08 | 0.04 | 48 | 1014.7 |
| 20260905135531 | 68 | 277 | 7.8 | 16.5 | 0.00 | 0.08 | 0.04 | 48 | 1014.7 |
| 20260905135028 | 68 | 284 | 9.6 | 18.2 | 0.00 | 0.08 | 0.04 | 47 | 1014.7 |
| 20260905134527 | 69 | 300 | 7.8 | 16.5 | 0.00 | 0.08 | 0.04 | 47 | 1014.7 |
| 20260905134025 | 69 | 294 | 6.1 | 14.8 | 0.00 | 0.08 | 0.04 | 47 | 1014.7 |
| 20260905133523 | 69 | 296 | 7.0 | 16.5 | 0.00 | 0.08 | 0.04 | 49 | 1014.6 |
| 20260905133021 | 69 | 286 | 7.0 | 20.9 | 0.00 | 0.08 | 0.04 | 48 | 1014.6 |
| 20260905132519 | 70 | 292 | 9.6 | 19.1 | 0.00 | 0.08 | 0.04 | 48 | 1014.5 |
| 20260905132017 | 69 | 300 | 7.8 | 19.1 | 0.00 | 0.08 | 0.04 | 49 | 1014.5 |
| 20260905131536 | 69 | 290 | 7.0 | 18.2 | 0.00 | 0.08 | 0.04 | 49 | 1014.5 |
| 20260905131033 | 69 | 287 | 8.7 | 18.2 | 0.00 | 0.08 | 0.04 | 48 | 1014.5 |
| 20260905130532 | 69 | 293 | 9.6 | 20.0 | 0.00 | 0.08 | 0.04 | 48 | 1014.6 |
| 20260905130030 | 69 | 282 | 10.4 | 20.9 | 0.00 | 0.08 | 0.04 | 51 | 1014.6 |
| 20260905125528 | 69 | 280 | 7.0 | 14.8 | 0.00 | 0.08 | 0.04 | 53 | 1014.5 |
| 20260905125027 | 69 | 276 | 7.0 | 14.8 | 0.00 | 0.08 | 0.04 | 52 | 1014.6 |
| 20260905124525 | 68 | 291 | 7.8 | 14.8 | 0.00 | 0.08 | 0.04 | 53 | 1014.6 |
| 20260905124023 | 69 | 283 | 6.1 | 13.9 | 0.00 | 0.08 | 0.04 | 53 | 1014.6 |
| 20260905123521 | 69 | 281 | 7.8 | 19.1 | 0.00 | 0.08 | 0.04 | 52 | 1014.5 |
| 20260905123019 | 70 | 287 | 7.8 | 14.8 | 0.00 | 0.08 | 0.04 | 52 | 1014.6 |
| 20260905122517 | 69 | 286 | 8.7 | 19.1 | 0.00 | 0.08 | 0.04 | 52 | 1014.6 |
| 20260905122035 | 69 | 303 | 9.6 | 19.1 | 0.00 | 0.08 | 0.04 | 51 | 1014.5 |
| 20260905121533 | 69 | 287 | 11.3 | 21.7 | 0.00 | 0.08 | 0.04 | 52 | 1014.5 |
| 20260905121031 | 68 | 284 | 8.7 | 19.1 | 0.00 | 0.08 | 0.04 | 52 | 1014.5 |
| 20260905120529 | 68 | 292 | 8.7 | 23.5 | 0.00 | 0.08 | 0.04 | 54 | 1014.6 |
| 20260905120028 | 67 | 282 | 7.8 | 18.2 | 0.00 | 0.08 | 0.04 | 56 | 1014.5 |
| 20260905115526 | 67 | 283 | 8.7 | 15.6 | 0.00 | 0.08 | 0.04 | 57 | 1014.6 |
| 20260905115023 | 68 | 281 | 8.7 | 19.1 | 0.00 | 0.08 | 0.04 | 56 | 1014.4 |
| 20260905114522 | 68 | 282 | 7.8 | 18.2 | 0.00 | 0.08 | 0.04 | 56 | 1014.4 |
| 20260905114020 | 68 | 287 | 5.2 | 12.2 | 0.00 | 0.08 | 0.04 | 58 | 1014.4 |
| 20260905113518 | 68 | 289 | 7.8 | 16.5 | 0.00 | 0.08 | 0.04 | 57 | 1014.4 |
| 20260905113049 | 68 | 285 | 7.8 | 20.0 | 0.00 | 0.08 | 0.04 | 55 | 1014.4 |
| 20260905113016 | 68 | 285 | 7.8 | 20.0 | 0.00 | 0.08 | 0.04 | 55 | 1014.4 |
| 20260905112534 | 69 | 297 | 8.7 | 20.0 | 0.00 | 0.08 | 0.04 | 55 | 1014.2 |
| 20260905112032 | 69 | 287 | 7.8 | 14.8 | 0.00 | 0.08 | 0.04 | 55 | 1014.4 |
| 20260905111530 | 69 | 268 | 7.8 | 14.8 | 0.00 | 0.08 | 0.04 | 55 | 1014.2 |
| 20260905111028 | 69 | 299 | 8.7 | 18.2 | 0.00 | 0.08 | 0.04 | 55 | 1014.2 |
| 20260905110526 | 68 | 299 | 10.4 | 21.7 | 0.00 | 0.08 | 0.04 | 57 | 1014.1 |
| 20260905110025 | 68 | 278 | 8.7 | 19.1 | 0.00 | 0.08 | 0.04 | 57 | 1014.1 |
| 20260905105522 | 68 | 284 | 7.0 | 15.6 | 0.00 | 0.08 | 0.04 | 57 | 1014.1 |
| 20260905105020 | 68 | 292 | 7.8 | 13.9 | 0.00 | 0.08 | 0.04 | 59 | 1014.1 |
| 20260905104518 | 67 | 282 | 7.0 | 16.5 | 0.00 | 0.08 | 0.04 | 59 | 1014.2 |
| 20260905104049 | 67 | 286 | 9.6 | 21.7 | 0.00 | 0.08 | 0.04 | 58 | 1014.2 |
| 20260905104016 | 67 | 286 | 9.6 | 21.7 | 0.00 | 0.08 | 0.04 | 58 | 1014.2 |
| 20260905103535 | 67 | 291 | 9.6 | 22.6 | 0.00 | 0.08 | 0.04 | 59 | 1014.1 |
| 20260905103033 | 67 | 285 | 7.8 | 14.8 | 0.00 | 0.08 | 0.04 | 60 | 1014.1 |
| 20260905102531 | 67 | 283 | 8.7 | 15.6 | 0.00 | 0.08 | 0.04 | 59 | 1013.9 |
| 20260905102029 | 68 | 291 | 8.7 | 20.0 | 0.00 | 0.08 | 0.04 | 58 | 1013.9 |
| 20260905101527 | 68 | 285 | 9.6 | 25.2 | 0.00 | 0.08 | 0.04 | 58 | 1013.8 |
| 20260905101025 | 68 | 273 | 9.6 | 23.5 | 0.00 | 0.08 | 0.04 | 60 | 1013.8 |
| 20260905100523 | 67 | 292 | 7.0 | 16.5 | 0.00 | 0.08 | 0.04 | 61 | 1013.8 |
| 20260905100021 | 67 | 274 | 7.8 | 15.6 | 0.00 | 0.08 | 0.04 | 60 | 1013.9 |
| 20260905095520 | 67 | 290 | 6.1 | 16.5 | 0.00 | 0.08 | 0.04 | 61 | 1013.8 |
| 20260905095017 | 67 | 285 | 8.7 | 22.6 | 0.00 | 0.08 | 0.04 | 59 | 1013.9 |
| 20260905094535 | 67 | 284 | 8.7 | 18.2 | 0.00 | 0.08 | 0.04 | 61 | 1013.8 |
| 20260905094033 | 67 | 280 | 6.1 | 12.2 | 0.00 | 0.08 | 0.04 | 60 | 1013.7 |
| 20260905093531 | 67 | 281 | 10.4 | 20.0 | 0.00 | 0.08 | 0.04 | 60 | 1013.8 |
| 20260905093029 | 67 | 279 | 7.8 | 19.1 | 0.00 | 0.08 | 0.04 | 60 | 1013.8 |
| 20260905092527 | 67 | 276 | 9.6 | 21.7 | 0.00 | 0.08 | 0.04 | 60 | 1013.8 |
| 20260905092025 | 66 | 276 | 8.7 | 18.2 | 0.00 | 0.08 | 0.04 | 63 | 1013.7 |
| 20260905091522 | 66 | 284 | 7.8 | 19.1 | 0.00 | 0.08 | 0.04 | 64 | 1013.7 |
| 20260905091021 | 66 | 278 | 9.6 | 23.5 | 0.00 | 0.08 | 0.04 | 62 | 1013.7 |
| 20260905090519 | 66 | 273 | 8.7 | 18.2 | 0.00 | 0.08 | 0.04 | 64 | 1013.6 |
| 20260905090049 | 65 | 278 | 8.7 | 18.2 | 0.00 | 0.08 | 0.04 | 65 | 1013.6 |
| 20260905090017 | 65 | 278 | 8.7 | 18.2 | 0.00 | 0.08 | 0.04 | 65 | 1013.6 |
| 20260905085536 | 65 | 277 | 8.7 | 18.2 | 0.00 | 0.08 | 0.04 | 65 | 1013.5 |
| 20260905085033 | 65 | 283 | 7.0 | 14.8 | 0.00 | 0.08 | 0.04 | 66 | 1013.6 |
| 20260905084531 | 65 | 271 | 7.8 | 18.2 | 0.00 | 0.08 | 0.04 | 66 | 1013.5 |
| 20260905084029 | 65 | 295 | 7.0 | 14.8 | 0.00 | 0.08 | 0.04 | 67 | 1013.6 |
| 20260905083527 | 64 | 281 | 8.7 | 19.1 | 0.00 | 0.08 | 0.04 | 68 | 1013.6 |
| 20260905083025 | 64 | 291 | 8.7 | 22.6 | 0.00 | 0.08 | 0.04 | 70 | 1013.7 |
| 20260905082523 | 64 | 282 | 7.0 | 16.5 | 0.00 | 0.08 | 0.04 | 71 | 1013.6 |
| 20260905082020 | 64 | 288 | 7.0 | 16.5 | 0.00 | 0.08 | 0.04 | 71 | 1013.6 |
| 20260905081518 | 64 | 282 | 7.8 | 19.1 | 0.00 | 0.08 | 0.04 | 70 | 1013.6 |
| 20260905081050 | 64 | 282 | 9.6 | 20.0 | 0.00 | 0.08 | 0.04 | 70 | 1013.5 |
| 20260905081016 | 64 | 282 | 9.6 | 20.0 | 0.00 | 0.08 | 0.04 | 70 | 1013.5 |
| 20260905080535 | 64 | 292 | 6.1 | 13.9 | 0.00 | 0.08 | 0.04 | 70 | 1013.6 |
| 20260905080033 | 64 | 293 | 8.7 | 16.5 | 0.00 | 0.08 | 0.04 | 70 | 1013.5 |
| 20260905075530 | 64 | 273 | 7.8 | 16.5 | 0.00 | 0.08 | 0.04 | 71 | 1013.5 |
| 20260905075028 | 63 | 279 | 6.1 | 14.8 | 0.00 | 0.08 | 0.04 | 72 | 1013.4 |
| 20260905074526 | 63 | 287 | 6.1 | 13.9 | 0.00 | 0.08 | 0.04 | 73 | 1013.4 |
| 20260905074024 | 63 | 294 | 5.2 | 11.3 | 0.00 | 0.08 | 0.04 | 73 | 1013.4 |
| 20260905073522 | 63 | 305 | 7.0 | 13.9 | 0.00 | 0.08 | 0.04 | 73 | 1013.3 |
| 20260905073020 | 62 | 288 | 6.1 | 13.0 | 0.00 | 0.08 | 0.04 | 75 | 1013.3 |
| 20260905072518 | 62 | 295 | 5.2 | 13.9 | 0.00 | 0.08 | 0.04 | 75 | 1013.1 |
| 20260905072016 | 62 | 278 | 6.1 | 11.3 | 0.00 | 0.08 | 0.04 | 75 | 1013.1 |
| 20260905071534 | 62 | 293 | 7.0 | 14.8 | 0.00 | 0.08 | 0.04 | 75 | 1013.0 |
| 20260905071033 | 62 | 285 | 6.1 | 13.9 | 0.00 | 0.08 | 0.04 | 75 | 1013.0 |
| 20260905070531 | 62 | 272 | 7.0 | 15.6 | 0.00 | 0.08 | 0.04 | 76 | 1012.9 |
| 20260905070029 | 62 | 284 | 5.2 | 9.6 | 0.00 | 0.08 | 0.04 | 77 | 1013.0 |
| 20260905065527 | 62 | 287 | 6.1 | 16.5 | 0.00 | 0.08 | 0.04 | 76 | 1013.0 |
| 20260905065025 | 62 | 287 | 7.0 | 15.6 | 0.00 | 0.08 | 0.04 | 77 | 1012.9 |
| 20260905064523 | 62 | 284 | 6.1 | 14.8 | 0.00 | 0.08 | 0.04 | 77 | 1012.8 |
| 20260905064021 | 62 | 285 | 7.0 | 13.9 | 0.00 | 0.08 | 0.04 | 77 | 1012.7 |
| 20260905063519 | 62 | 278 | 5.2 | 11.3 | 0.00 | 0.08 | 0.04 | 77 | 1012.6 |
| 20260905063018 | 62 | 279 | 7.0 | 18.2 | 0.00 | 0.08 | 0.04 | 78 | 1012.6 |
| 20260905062516 | 62 | 287 | 7.0 | 18.2 | 0.00 | 0.08 | 0.04 | 78 | 1012.6 |
| 20260905062034 | 62 | 291 | 8.7 | 20.9 | 0.00 | 0.08 | 0.04 | 78 | 1012.4 |
| 20260905061532 | 62 | 282 | 5.2 | 13.0 | 0.00 | 0.08 | 0.04 | 78 | 1012.2 |
| 20260905061029 | 62 | 281 | 5.2 | 13.9 | 0.00 | 0.08 | 0.04 | 78 | 1012.2 |
| 20260905060527 | 62 | 285 | 6.1 | 13.9 | 0.00 | 0.08 | 0.04 | 78 | 1012.1 |
| 20260905060025 | 62 | 288 | 5.2 | 12.2 | 0.00 | 0.08 | 0.04 | 79 | 1012.1 |
| 20260905055523 | 62 | 282 | 6.1 | 13.0 | 0.00 | 0.08 | 0.04 | 79 | 1012.3 |
| 20260905055021 | 62 | 290 | 5.2 | 11.3 | 0.00 | 0.08 | 0.04 | 79 | 1012.3 |
| 20260905054520 | 61 | 284 | 6.1 | 14.8 | 0.00 | 0.08 | 0.04 | 79 | 1012.2 |
| 20260905054017 | 61 | 291 | 7.0 | 15.6 | 0.00 | 0.08 | 0.04 | 80 | 1012.1 |
| 20260905053515 | 61 | 284 | 5.2 | 13.0 | 0.00 | 0.08 | 0.04 | 80 | 1012.1 |
| 20260905053034 | 61 | 285 | 5.2 | 13.0 | 0.00 | 0.08 | 0.04 | 80 | 1012.0 |
| 20260905052532 | 61 | 295 | 6.1 | 14.8 | 0.00 | 0.08 | 0.04 | 80 | 1011.9 |
| 20260905052030 | 61 | 295 | 6.1 | 13.9 | 0.00 | 0.08 | 0.04 | 80 | 1012.0 |
| 20260905051528 | 61 | 287 | 6.1 | 14.8 | 0.00 | 0.08 | 0.04 | 80 | 1012.0 |
| 20260905051026 | 61 | 289 | 6.1 | 14.8 | 0.00 | 0.08 | 0.04 | 80 | 1012.0 |
| 20260905050524 | 61 | 279 | 6.1 | 15.6 | 0.00 | 0.08 | 0.04 | 80 | 1011.8 |
| 20260905050023 | 61 | 292 | 6.1 | 12.2 | 0.00 | 0.08 | 0.04 | 80 | 1011.6 |
| 20260905045520 | 61 | 278 | 7.0 | 13.0 | 0.00 | 0.08 | 0.04 | 81 | 1011.4 |
| 20260905045019 | 61 | 285 | 6.1 | 13.0 | 0.00 | 0.08 | 0.04 | 81 | 1011.4 |
| 20260905044517 | 61 | 282 | 4.3 | 13.9 | 0.00 | 0.08 | 0.04 | 81 | 1011.3 |
| 20260905044035 | 61 | 280 | 8.7 | 18.2 | 0.00 | 0.08 | 0.04 | 81 | 1011.2 |
| 20260905043534 | 61 | 291 | 8.7 | 18.2 | 0.00 | 0.08 | 0.04 | 81 | 1011.2 |
| 20260905043031 | 61 | 277 | 7.8 | 18.2 | 0.00 | 0.08 | 0.04 | 81 | 1011.2 |
| 20260905042529 | 61 | 290 | 7.8 | 13.9 | 0.00 | 0.08 | 0.04 | 82 | 1011.0 |
| 20260905042028 | 61 | 286 | 6.1 | 13.9 | 0.00 | 0.08 | 0.04 | 82 | 1010.9 |
| 20260905041525 | 61 | 276 | 6.1 | 15.6 | 0.00 | 0.08 | 0.04 | 82 | 1010.9 |
| 20260905041024 | 61 | 275 | 7.0 | 15.6 | 0.00 | 0.08 | 0.04 | 82 | 1010.8 |
| 20260905040522 | 61 | 277 | 6.1 | 12.2 | 0.00 | 0.08 | 0.04 | 82 | 1010.7 |
| 20260905040020 | 61 | 275 | 6.1 | 13.0 | 0.00 | 0.08 | 0.04 | 82 | 1010.6 |
| 20260905035518 | 61 | 287 | 6.1 | 14.8 | 0.00 | 0.08 | 0.04 | 83 | 1010.5 |
| 20260905035047 | 61 | 289 | 7.0 | 13.0 | 0.00 | 0.08 | 0.04 | 83 | 1010.3 |
| 20260905035016 | 61 | 289 | 7.0 | 13.0 | 0.00 | 0.08 | 0.04 | 83 | 1010.3 |
| 20260905034534 | 61 | 299 | 5.2 | 18.2 | 0.00 | 0.08 | 0.04 | 83 | 1010.4 |
| 20260905034033 | 61 | 288 | 7.0 | 12.2 | 0.00 | 0.08 | 0.04 | 83 | 1010.3 |
| 20260905033531 | 61 | 276 | 6.1 | 16.5 | 0.00 | 0.08 | 0.04 | 84 | 1010.5 |
| 20260905033029 | 61 | 287 | 5.2 | 19.1 | 0.00 | 0.08 | 0.04 | 84 | 1010.3 |
| 20260905032527 | 61 | 283 | 7.0 | 15.6 | 0.00 | 0.08 | 0.04 | 84 | 1010.5 |
| 20260905032025 | 61 | 284 | 7.0 | 19.1 | 0.00 | 0.08 | 0.04 | 84 | 1010.2 |
| 20260905031523 | 61 | 280 | 7.8 | 18.2 | 0.00 | 0.08 | 0.04 | 84 | 1010.1 |
| 20260905031021 | 61 | 277 | 6.1 | 18.2 | 0.00 | 0.08 | 0.04 | 84 | 1010.0 |
| 20260905030519 | 61 | 282 | 6.1 | 14.8 | 0.00 | 0.08 | 0.04 | 84 | 1010.1 |
| 20260905030018 | 61 | 283 | 6.1 | 11.3 | 0.00 | 0.08 | 0.04 | 84 | 1010.0 |
| 20260905025515 | 62 | 267 | 8.7 | 20.0 | 0.01 | 0.08 | 0.04 | 84 | 1009.9 |
| 20260905025034 | 62 | 274 | 6.1 | 14.8 | 0.01 | 0.08 | 0.04 | 84 | 1009.9 |
| 20260905024532 | 62 | 300 | 6.1 | 13.0 | 0.01 | 0.08 | 0.04 | 84 | 1009.9 |
| 20260905024030 | 62 | 299 | 7.0 | 15.6 | 0.01 | 0.08 | 0.04 | 84 | 1009.9 |
| 20260905023528 | 62 | 283 | 7.0 | 18.2 | 0.00 | 0.07 | 0.04 | 84 | 1010.0 |
| 20260905023026 | 62 | 277 | 7.8 | 14.8 | 0.00 | 0.07 | 0.04 | 84 | 1009.9 |
| 20260905022525 | 62 | 288 | 6.1 | 14.8 | 0.00 | 0.07 | 0.04 | 84 | 1010.0 |
| 20260905022022 | 62 | 275 | 6.1 | 15.6 | 0.00 | 0.07 | 0.04 | 84 | 1010.1 |
| 20260905021521 | 62 | 292 | 5.2 | 9.6 | 0.00 | 0.07 | 0.04 | 84 | 1009.8 |
| 20260905021111 | 62 | 273 | 6.1 | 13.0 | 0.00 | 0.07 | 0.04 | 83 | 1009.3 |
| 20260905021019 | 62 | 273 | 6.1 | 13.0 | 0.00 | 0.07 | 0.04 | 83 | 1009.3 |
| 20260905020517 | 62 | 281 | 6.1 | 13.0 | 0.00 | 0.07 | 0.04 | 83 | 1009.2 |
| 20260905020035 | 62 | 282 | 6.1 | 13.9 | 0.00 | 0.07 | 0.04 | 83 | 1009.4 |
| 20260905015533 | 62 | 287 | 7.0 | 13.0 | 0.00 | 0.07 | 0.03 | 83 | 1009.5 |
| 20260905015031 | 62 | 287 | 6.1 | 13.9 | 0.00 | 0.07 | 0.03 | 83 | 1009.6 |
| 20260905014529 | 62 | 272 | 7.8 | 18.2 | 0.01 | 0.07 | 0.03 | 83 | 1009.7 |
| 20260905014028 | 62 | 284 | 7.0 | 15.6 | 0.01 | 0.07 | 0.03 | 82 | 1009.7 |
| 20260905013526 | 62 | 290 | 6.1 | 13.9 | 0.01 | 0.07 | 0.03 | 82 | 1009.8 |
| 20260905013024 | 62 | 279 | 5.2 | 13.9 | 0.01 | 0.07 | 0.03 | 82 | 1009.8 |
| 20260905012522 | 62 | 282 | 7.8 | 14.8 | 0.01 | 0.07 | 0.03 | 81 | 1009.5 |
| 20260905012020 | 62 | 282 | 7.0 | 13.9 | 0.01 | 0.07 | 0.03 | 80 | 1009.1 |
| 20260905011518 | 62 | 271 | 7.0 | 20.9 | 0.01 | 0.07 | 0.03 | 80 | 1008.9 |
| 20260905011049 | 62 | 305 | 7.0 | 14.8 | 0.01 | 0.07 | 0.03 | 80 | 1009.2 |
| 20260905011017 | 62 | 305 | 7.0 | 14.8 | 0.01 | 0.07 | 0.03 | 80 | 1009.2 |
| 20260905010534 | 63 | 288 | 8.7 | 20.0 | 0.02 | 0.07 | 0.03 | 80 | 1009.4 |
| 20260905010033 | 63 | 289 | 6.1 | 13.9 | 0.02 | 0.07 | 0.03 | 80 | 1009.3 |
| 20260905005531 | 63 | 275 | 7.0 | 18.2 | 0.03 | 0.07 | 0.03 | 80 | 1009.5 |
| 20260905005029 | 63 | 285 | 5.2 | 15.6 | 0.03 | 0.07 | 0.03 | 80 | 1009.0 |
| 20260905004527 | 63 | 277 | 4.3 | 9.6 | 0.02 | 0.06 | 0.02 | 79 | 1008.9 |
| 20260905004025 | 64 | 277 | 6.1 | 14.8 | 0.02 | 0.06 | 0.02 | 80 | 1008.8 |
| 20260905003523 | 64 | 283 | 5.2 | 11.3 | 0.02 | 0.06 | 0.02 | 80 | 1008.7 |
| 20260905003021 | 64 | 276 | 6.1 | 13.9 | 0.02 | 0.06 | 0.02 | 80 | 1008.8 |
| 20260905002519 | 64 | 288 | 6.1 | 13.0 | 0.02 | 0.06 | 0.02 | 80 | 1008.6 |
| 20260905002018 | 64 | 270 | 7.8 | 19.1 | 0.02 | 0.06 | 0.02 | 80 | 1008.5 |
| 20260905001515 | 64 | 291 | 7.8 | 18.2 | 0.02 | 0.06 | 0.02 | 80 | 1008.6 |
| 20260905001034 | 65 | 268 | 7.8 | 18.2 | 0.02 | 0.06 | 0.02 | 80 | 1008.7 |
| 20260905000532 | 65 | 285 | 7.0 | 13.9 | 0.01 | 0.05 | 0.01 | 79 | 1008.7 |
| 20260905000030 | 65 | 286 | 8.7 | 15.6 | 0.00 | 0.05 | 0.01 | 78 | 1008.6 |
| 20260904235528 | 66 | 258 | 8.7 | 19.1 | 0.00 | 0.04 | 0.00 | 78 | 1008.1 |
| 20260904235027 | 66 | 270 | 6.1 | 18.2 | 0.00 | 0.04 | 0.00 | 79 | 1007.7 |
| 20260904234524 | 66 | 272 | 5.2 | 15.6 | 0.00 | 0.04 | 0.00 | 79 | 1007.3 |
| 20260904234023 | 66 | 280 | 5.2 | 14.8 | 0.00 | 0.04 | 0.00 | 80 | 1007.2 |
| 20260904233521 | 66 | 267 | 4.3 | 12.2 | 0.00 | 0.04 | 0.00 | 80 | 1007.4 |
| 20260904233019 | 66 | 262 | 7.0 | 15.6 | 0.00 | 0.04 | 0.00 | 80 | 1007.5 |
| 20260904232517 | 66 | 277 | 5.2 | 12.2 | 0.00 | 0.04 | 0.00 | 80 | 1007.9 |
| 20260904232035 | 66 | 281 | 5.2 | 12.2 | 0.00 | 0.04 | 0.00 | 79 | 1007.8 |
| 20260904231533 | 66 | 262 | 3.5 | 7.0 | 0.00 | 0.04 | 0.00 | 79 | 1007.5 |
| 20260904231031 | 66 | 265 | 2.6 | 7.0 | 0.00 | 0.04 | 0.00 | 78 | 1007.6 |
| 20260904230530 | 66 | 270 | 2.6 | 6.1 | 0.00 | 0.04 | 0.00 | 78 | 1007.6 |
| 20260904230027 | 66 | 252 | 2.6 | 7.8 | 0.00 | 0.04 | 0.00 | 78 | 1007.3 |
| 20260904225525 | 66 | 265 | 1.7 | 5.2 | 0.00 | 0.04 | 0.00 | 78 | 1007.4 |
| 20260904225024 | 66 | 267 | 1.7 | 2.6 | 0.00 | 0.04 | 0.00 | 78 | 1007.4 |
| 20260904224522 | 66 | 289 | 1.7 | 5.2 | 0.00 | 0.04 | 0.00 | 78 | 1007.4 |
| 20260904224020 | 66 | 279 | 2.6 | 7.8 | 0.00 | 0.04 | 0.00 | 78 | 1007.3 |
| 20260904223518 | 66 | 287 | 2.6 | 7.0 | 0.00 | 0.04 | 0.00 | 79 | 1007.4 |